| time (UTC) | temp C | wind direction | speed KPH | gust KPH | rain 1hr cm | rain 24hr cm | rain mn cm | humidity % | barometer mb |
| 20260505212353 | 12 | 75 | 3.2 | 16.1 | 0.00 | 0.00 | 0.00 | 73 | 1011.9 |
| 20260505210853 | 12 | 14 | 1.6 | 16.1 | 0.00 | 0.00 | 0.00 | 71 | 1011.8 |
| 20260505205353 | 12 | 52 | 8.0 | 16.1 | 0.00 | 0.00 | 0.00 | 71 | 1011.8 |
| 20260505203855 | 12 | 347 | 0.0 | 16.1 | 0.00 | 0.00 | 0.00 | 72 | 1011.7 |
| 20260505202353 | 12 | 23 | 1.6 | 16.1 | 0.00 | 0.00 | 0.00 | 71 | 1011.6 |
| 20260505200853 | 13 | 0 | 3.2 | 16.1 | 0.00 | 0.00 | 0.00 | 71 | 1011.6 |
| 20260505195354 | 13 | 350 | 1.6 | 16.1 | 0.00 | 0.00 | 0.00 | 71 | 1011.3 |
| 20260505193853 | 13 | 345 | 1.6 | 16.1 | 0.00 | 0.00 | 0.00 | 71 | 1011.1 |
| 20260505192353 | 13 | 344 | 0.0 | 16.1 | 0.00 | 0.00 | 0.00 | 70 | 1011.1 |
| 20260505190853 | 13 | 346 | 1.6 | 16.1 | 0.00 | 0.00 | 0.00 | 70 | 1010.9 |
| 20260505185353 | 13 | 340 | 0.0 | 16.1 | 0.00 | 0.00 | 0.00 | 70 | 1010.8 |
| 20260505183853 | 13 | 348 | 1.6 | 16.1 | 0.00 | 0.00 | 0.00 | 69 | 1010.8 |
| 20260505182353 | 13 | 344 | 1.6 | 16.1 | 0.00 | 0.00 | 0.00 | 68 | 1010.7 |
| 20260505180853 | 14 | 346 | 1.6 | 16.1 | 0.00 | 0.00 | 0.00 | 67 | 1010.8 |
| 20260505173853 | 14 | 316 | 0.0 | 14.5 | 0.00 | 0.00 | 0.00 | 68 | 1010.7 |
| 20260505172354 | 13 | 331 | 0.0 | 12.9 | 0.00 | 0.00 | 0.00 | 70 | 1010.8 |
| 20260505170853 | 13 | 331 | 1.6 | 12.9 | 0.00 | 0.00 | 0.00 | 70 | 1010.8 |
| 20260505165353 | 13 | 338 | 1.6 | 12.9 | 0.00 | 0.00 | 0.00 | 70 | 1010.9 |
| 20260505163853 | 14 | 338 | 0.0 | 12.9 | 0.00 | 0.00 | 0.00 | 70 | 1010.9 |
| 20260505162353 | 14 | 339 | 0.0 | 12.9 | 0.00 | 0.00 | 0.00 | 70 | 1011.0 |
| 20260505160853 | 15 | 334 | 0.0 | 12.9 | 0.00 | 0.00 | 0.00 | 68 | 1011.0 |
| 20260505152353 | 15 | 20 | 1.6 | 12.9 | 0.00 | 0.00 | 0.00 | 66 | 1011.1 |
| 20260505150854 | 15 | 337 | 0.0 | 12.9 | 0.00 | 0.00 | 0.00 | 66 | 1011.1 |
| 20260505123854 | 15 | 302 | 0.0 | 12.9 | 0.00 | 0.00 | 0.00 | 66 | 1011.7 |
| 20260505122353 | 15 | 40 | 0.0 | 12.9 | 0.00 | 0.00 | 0.00 | 64 | 1011.7 |
| 20260505120853 | 15 | 346 | 0.0 | 11.3 | 0.00 | 0.00 | 0.00 | 67 | 1011.7 |
| 20260505113853 | 13 | 297 | 1.6 | 11.3 | 0.00 | 0.00 | 0.00 | 73 | 1011.9 |
| 20260505112353 | 13 | 330 | 0.0 | 11.3 | 0.00 | 0.00 | 0.00 | 75 | 1012.1 |
| 20260505110853 | 12 | 331 | 1.6 | 11.3 | 0.00 | 0.00 | 0.00 | 77 | 1012.2 |
| 20260505100854 | 12 | 43 | 1.6 | 11.3 | 0.00 | 0.00 | 0.00 | 76 | 1012.5 |
| 20260505095353 | 12 | 335 | 1.6 | 11.3 | 0.00 | 0.00 | 0.00 | 77 | 1012.5 |
| 20260505093854 | 12 | 359 | 0.0 | 11.3 | 0.00 | 0.00 | 0.00 | 79 | 1012.5 |
| 20260505092353 | 12 | 59 | 3.2 | 11.3 | 0.00 | 0.00 | 0.00 | 79 | 1012.6 |
| 20260505090853 | 12 | 342 | 1.6 | 11.3 | 0.00 | 0.00 | 0.00 | 82 | 1012.6 |
| 20260505085353 | 11 | 355 | 1.6 | 11.3 | 0.00 | 0.00 | 0.00 | 83 | 1012.7 |
| 20260505083854 | 11 | 323 | 0.0 | 11.3 | 0.00 | 0.00 | 0.00 | 84 | 1012.8 |
| 20260505082353 | 11 | 323 | 3.2 | 11.3 | 0.00 | 0.00 | 0.00 | 85 | 1012.8 |
| 20260505080853 | 11 | 298 | 0.0 | 11.3 | 0.00 | 0.00 | 0.00 | 86 | 1012.8 |
| 20260505075354 | 11 | 296 | 0.0 | 11.3 | 0.00 | 0.00 | 0.00 | 86 | 1012.7 |
| 20260505073853 | 11 | 295 | 0.0 | 11.3 | 0.00 | 0.00 | 0.00 | 85 | 1012.8 |
| 20260505072353 | 11 | 342 | 0.0 | 11.3 | 0.00 | 0.00 | 0.00 | 85 | 1012.9 |
| 20260505070853 | 11 | 341 | 0.0 | 11.3 | 0.00 | 0.00 | 0.00 | 86 | 1012.8 |
| 20260505065353 | 11 | 341 | 1.6 | 11.3 | 0.00 | 0.00 | 0.00 | 87 | 1012.9 |
| 20260505063853 | 11 | 340 | 0.0 | 11.3 | 0.00 | 0.00 | 0.00 | 88 | 1012.9 |
| 20260505062354 | 10 | 338 | 0.0 | 6.4 | 0.00 | 0.00 | 0.00 | 89 | 1012.8 |
| 20260505060853 | 10 | 338 | 1.6 | 6.4 | 0.00 | 0.00 | 0.00 | 89 | 1012.8 |
| 20260505055353 | 10 | 338 | 0.0 | 6.4 | 0.00 | 0.00 | 0.00 | 89 | 1012.8 |
| 20260505053853 | 10 | 338 | 0.0 | 6.4 | 0.00 | 0.00 | 0.00 | 89 | 1012.9 |
| 20260505052353 | 10 | 338 | 0.0 | 6.4 | 0.00 | 0.00 | 0.00 | 90 | 1012.9 |